Temperature
14 14 15 15 18 20 21 22 22 21 21 21 21 22 23 23 23 22 17 17 17 17 17 17 16 16 17 17 17 17 17 16 16 16 16 16 16 16 16 16 16 15 15 16 16 16 16 15 15
13 14 14 16 19 20 21 21 21 21 21 19 19 20 21 21 18 17 17 17 17 17 16 16 16 16 16 17 16 16 17 16 16 16 16 16 16 16 16 16 15 15 15 15 15 15 15 15 15
13 14 15 18 19 21 21 21 21 20 18 19 19 20 20 19 17 16 17 16 16 16 16 16 16 16 16 16 16 16 16 16 16 16 16 16 16 16 16 15 15 15 15 15 15 15 15 15 15
13 14 15 18 19 20 21 21 19 19 18 18 19 19 18 16 16 16 17 16 15 16 16 16 16 16 16 16 16 16 16 16 16 16 16 16 16 16 15 15 15 15 15 15 15 15 15 15 15
13 15 17 17 19 20 20 19 18 19 19 18 19 20 18 15 15 16 16 16 15 15 15 16 16 16 16 16 16 16 16 16 16 16 16 16 16 15 15 15 15 15 15 15 15 15 15 15 14
13 15 17 18 19 19 19 18 18 19 19 18 18 19 17 15 15 15 15 15 15 15 15 15 15 16 16 16 16 16 16 16 16 16 16 15 15 15 15 15 15 15 14 14 14 14 14 14 14
13 15 16 18 18 19 19 17 18 19 19 18 18 19 16 14 15 15 15 14 14 15 15 15 15 15 16 16 16 16 16 16 16 16 15 15 15 15 15 15 15 14 14 14 14 14 14 14 14
12 15 16 17 18 18 18 17 17 18 19 17 17 18 17 14 14 14 14 14 14 14 15 15 15 15 15 15 15 15 15 15 15 15 15 15 15 15 15 14 14 14 14 14 14 14 14 14 14
11 14 15 17 17 18 17 17 16 16 17 16 15 16 15 14 14 14 14 14 14 14 14 14 14 15 15 15 15 15 15 15 15 15 15 15 15 14 14 14 14 14 14 14 14 14 14 14 14
12 13 15 17 17 17 16 17 16 16 17 16 15 14 14 14 14 14 14 14 14 14 14 14 14 14 15 14 15 15 15 15 15 15 14 14 14 14 14 14 14 14 14 14 13 13 13 13 13
12 13 15 15 15 15 16 16 15 17 18 17 16 14 14 13 13 13 14 14 14 14 14 14 14 14 14 14 14 14 14 14 14 14 14 14 14 14 14 14 13 13 13 13 13 13 13 13 13
12 13 13 14 13 14 15 15 15 16 17 16 15 14 14 13 13 13 13 13 13 14 14 14 14 14 14 14 14 14 14 14 14 14 14 14 14 14 14 13 13 13 13 13 13 13 13 13 13
11 12 12 12 12 13 14 14 15 15 14 14 14 14 13 13 13 13 13 13 13 14 14 14 14 14 14 14 14 14 14 14 14 14 14 14 14 14 13 13 13 13 13 13 13 13 13 13 12
11 11 12 12 12 13 14 14 14 14 14 13 13 13 13 13 13 13 13 13 13 13 14 14 14 13 14 14 14 13 13 14 14 14 14 13 13 13 13 13 13 13 13 13 13 12 12 12 12
10 11 12 12 13 13 13 14 14 14 13 13 13 13 13 13 13 13 13 13 13 13 13 13 13 13 13 13 13 13 13 13 13 13 13 13 13 13 13 13 13 13 12 12 12 12 12 12 12
11 11 11 12 13 13 13 14 15 13 13 13 13 13 12 12 12 13 13 13 13 13 13 13 13 13 13 13 13 13 13 13 13 13 13 13 13 13 13 13 13 12 12 12 12 12 12 12 11
10 10 11 12 12 13 13 14 14 12 13 13 13 13 12 12 12 12 12 12 13 13 13 13 13 13 13 13 13 13 12 12 13 13 13 13 13 13 13 12 12 12 12 12 12 12 11 11 11
9 10 11 12 12 12 12 13 13 12 12 13 13 13 12 12 12 12 12 12 12 12 12 12 12 12 12 12 12 12 12 12 12 12 12 12 12 12 12 12 12 12 12 11 11 11 11 11 11
10 10 11 11 11 11 12 12 12 12 12 12 12 12 12 11 11 11 11 12 12 12 12 12 12 12 12 12 12 12 12 12 12 12 12 12 12 12 12 12 12 12 11 11 11 11 11 11 10
10 10 10 10 10 11 11 12 12 12 11 12 12 12 11 11 10 10 11 11 12 12 12 12 12 12 12 12 12 12 12 11 11 11 11 11 11 11 11 11 11 11 11 11 11 11 10 10 10
9 9 10 9 10 10 10 11 11 12 11 11 11 10 10 10 10 10 10 11 11 11 11 11 11 11 11 11 11 11 11 11 11 11 11 11 11 11 11 11 11 11 11 11 11 10 10 10 9
8 9 9 9 9 10 10 11 12 12 11 11 10 10 10 9 9 9 10 10 10 11 11 11 11 11 11 11 11 11 11 11 11 11 11 11 11 11 11 11 11 10 10 10 10 10 10 9 9
8 9 9 9 9 9 9 10 12 11 11 11 11 10 9 9 9 9 9 10 10 10 10 11 11 11 11 11 11 11 11 11 11 11 11 10 10 10 10 10 10 10 10 10 10 9 9 9 8
8 8 8 8 8 8 9 10 11 11 11 11 11 9 9 8 8 9 9 9 9 9 10 10 10 10 10 10 10 10 10 10 10 10 10 10 10 10 10 10 10 10 10 10 9 9 9 8 8
8 8 8 8 8 9 9 9 10 11 10 10 10 9 8 8 8 8 8 8 9 9 9 10 10 10 10 10 10 10 10 10 10 10 10 10 10 10 10 9 10 9 9 9 9 8 8 8 8
7 7 8 8 9 9 9 9 10 9 9 8 8 8 7 7 7 8 8 8 8 9 9 9 9 9 10 10 10 10 9 9 10 9 9 9 9 9 9 9 9 9 9 8 8 8 8 7 7
6 7 7 7 8 8 9 9 9 9 8 8 7 7 6 6 6 7 7 8 8 8 8 8 9 9 9 9 9 9 9 9 9 9 9 9 9 9 9 9 9 8 8 8 8 7 7 7 7
6 6 6 6 7 8 9 9 10 8 8 8 7 6 6 5 6 6 6 7 7 8 8 8 8 8 8 8 8 8 9 8 8 9 9 9 8 8 8 8 8 8 8 8 7 7 7 6 6
5 5 6 6 7 8 9 9 8 8 7 7 7 5 5 4 5 5 6 6 6 7 7 7 7 7 8 8 8 8 8 8 8 8 8 8 8 8 8 8 8 7 7 7 6 6 6 6 5
5 5 5 6 6 7 8 8 6 6 6 6 5 4 4 4 4 4 5 5 6 6 6 7 7 7 7 7 7 8 8 8 7 7 7 7 8 8 7 7 7 7 6 6 6 6 5 5 5
Wind_Speed
3 3 2 3 5 7 14 10 6 6 5 4 4 5 6 5 4 1 4 10 12 14 16 18 17 18 18 18 18 18 17 16 16 16 16 15 15 15 15 15 16 16 16 16 16 16 15 15 15
3 2 3 4 8 12 13 10 10 8 4 4 4 5 5 4 1 4 5 10 13 14 16 17 18 18 18 18 18 17 17 16 16 16 16 15 15 15 15 15 16 16 15 15 15 15 14 14 14
3 3 4 5 9 15 12 8 9 6 5 5 5 3 3 2 3 4 6 12 13 14 15 16 17 18 18 18 18 17 17 16 16 16 15 15 15 15 15 15 15 15 15 15 14 14 14 14 14
4 4 4 9 16 15 9 5 5 6 6 5 5 4 2 2 2 4 10 13 14 14 15 17 17 18 18 17 17 16 16 16 16 15 15 15 15 15 15 15 15 15 14 14 14 14 14 13 13
3 5 8 13 18 13 8 5 6 7 7 6 7 5 4 2 3 8 12 14 14 14 14 17 16 17 17 17 17 16 15 15 15 15 15 15 15 15 15 15 14 14 14 13 13 13 13 13 13
5 5 11 17 18 13 9 7 7 8 7 6 6 6 3 3 7 10 13 13 13 13 14 16 16 17 17 16 16 16 15 15 15 15 15 15 15 15 14 14 14 14 13 13 12 12 12 12 12
7 8 15 18 17 14 11 8 9 9 9 7 6 5 4 5 7 11 12 12 13 13 13 14 15 16 16 16 16 16 15 15 14 15 15 15 14 14 14 14 13 13 13 12 12 12 12 12 11
5 6 14 16 17 15 9 8 6 9 8 4 5 6 5 7 10 12 12 11 12 12 12 12 14 14 15 15 15 15 15 15 15 15 15 15 14 13 13 13 13 13 12 12 12 11 11 11 11
5 9 16 17 15 12 8 8 6 4 6 5 3 2 3 11 13 13 12 11 11 11 11 11 12 13 13 14 15 15 14 14 15 14 14 12 11 11 11 12 13 12 12 11 11 11 11 10 10
8 13 19 13 11 9 8 9 7 6 8 6 4 3 8 14 15 15 15 15 14 13 12 10 11 11 13 12 12 11 11 12 11 11 11 9 9 9 10 12 12 12 12 11 10 9 8 6 6
9 13 12 9 7 7 8 7 6 8 9 8 8 9 12 15 15 15 15 15 14 13 11 10 10 11 12 10 9 9 9 9 10 10 9 9 8 8 8 8 8 8 8 7 7 6 5 5 5
10 12 10 7 5 6 7 7 7 9 7 3 6 11 14 16 16 15 15 14 13 12 12 10 10 10 11 10 9 8 8 8 8 8 9 8 7 6 6 5 6 5 4 5 4 4 5 5 5
13 10 9 7 6 6 6 8 8 9 5 3 6 10 13 15 15 14 13 12 12 12 12 11 10 9 10 9 8 8 8 8 8 8 8 7 7 6 6 5 5 5 4 4 4 4 4 4 4
10 8 8 7 7 6 7 8 8 7 4 5 8 10 11 12 13 12 13 12 12 12 12 11 10 10 10 9 8 7 7 8 8 7 7 7 7 6 6 5 5 4 4 4 4 4 3 3 3
7 8 8 8 8 6 6 9 11 7 6 7 8 9 10 11 11 12 12 12 12 12 12 11 10 10 10 10 9 7 7 8 7 7 7 7 7 7 6 5 4 4 4 4 4 4 3 2 2
8 9 10 8 9 7 9 15 9 6 8 9 9 9 10 10 10 10 10 10 11 11 11 11 9 10 10 9 8 7 7 7 6 7 7 7 7 7 6 5 4 4 4 4 3 3 2 2 1
8 11 13 9 9 7 10 12 6 5 8 9 10 10 10 10 10 9 8 8 9 10 11 10 10 10 9 8 7 7 7 6 6 6 6 6 7 6 6 4 4 5 4 3 3 2 1 1 1
11 12 12 11 8 9 11 10 5 4 7 9 10 10 10 10 10 8 8 8 8 8 9 10 10 10 9 7 6 6 6 5 5 5 6 7 6 6 6 5 5 4 3 2 2 2 2 1 0
11 12 11 8 5 9 12 11 8 5 6 8 8 8 8 8 7 7 7 8 7 8 9 10 10 10 8 7 6 6 5 4 4 4 6 6 6 6 6 5 5 4 3 3 3 2 2 1 1
10 12 10 5 4 6 9 10 8 7 8 8 9 8 8 6 5 6 6 7 7 8 10 10 10 10 9 7 6 4 4 4 4 4 5 5 6 6 5 5 4 4 3 3 3 2 1 1 0
9 11 10 6 3 4 6 8 9 7 7 7 7 7 7 7 7 6 6 7 7 8 9 9 9 9 9 8 6 5 4 3 3 4 3 4 5 6 5 5 5 4 3 3 3 3 2 1 1
7 8 7 7 7 5 7 8 10 9 8 8 8 7 7 7 6 6 6 6 7 7 7 9 9 9 9 10 9 9 7 6 6 5 4 5 5 5 5 5 5 4 3 3 3 3 2 2 2
5 5 6 7 6 4 7 7 7 8 10 10 9 8 7 7 6 6 6 6 6 7 7 7 8 9 9 9 10 9 8 6 5 5 6 5 5 5 5 5 5 4 4 3 3 3 2 2 2
3 5 5 5 4 7 9 9 8 8 11 9 8 7 6 5 5 5 4 4 4 4 5 7 8 8 9 9 9 9 9 8 8 8 7 5 4 4 5 6 5 5 4 4 4 3 3 3 2
4 5 3 4 5 6 8 8 6 5 6 7 8 6 4 3 3 4 4 4 3 4 4 6 7 7 8 9 8 8 9 9 9 9 8 7 5 4 6 6 5 5 4 4 4 3 3 3 3
5 5 3 4 6 4 6 9 4 1 2 3 3 3 2 1 1 2 3 3 4 4 4 5 7 7 7 7 7 7 7 6 6 7 7 7 6 5 6 6 5 5 5 5 4 3 3 3 3
3 4 2 1 2 4 6 5 3 1 1 0 1 1 1 1 1 1 2 3 4 4 4 5 5 6 6 6 6 6 6 6 6 7 6 5 5 5 7 6 6 6 5 5 4 3 3 3 2
2 2 2 3 3 4 6 7 4 3 2 1 1 1 2 2 1 1 1 2 3 3 3 3 4 5 5 5 5 5 5 5 6 6 6 6 6 6 6 6 6 6 5 4 4 3 3 3 2
2 3 2 2 3 4 5 3 1 3 2 2 1 2 2 2 2 2 1 1 2 2 2 2 3 3 3 3 4 4 4 4 5 5 6 6 6 6 6 6 6 5 5 5 4 3 3 3 3
3 4 4 3 3 3 3 1 2 1 2 2 2 2 2 2 2 1 0 1 1 1 1 2 2 3 3 2 3 3 4 4 5 5 5 6 6 6 6 6 6 5 5 5 5 4 4 4 3
Wind_Direction
282 269 231 211 208 220 227 215 211 198 200 199 190 204 212 203 203 128 98 151 145 148 150 152 148 145 141 138 135 132 131 129 127 125 123 120 117 114 111 107 104 100 95 93 91 90 88 86 84
254 220 203 212 220 218 220 215 213 209 185 165 187 203 204 199 68 96 140 152 149 148 149 152 145 144 142 139 136 134 132 130 129 126 124 121 118 115 112 109 106 101 97 94 92 90 88 87 85
219 219 207 207 222 223 218 205 216 205 175 177 178 202 206 171 137 139 151 156 150 147 147 143 144 143 142 140 138 136 134 132 129 127 124 121 119 115 112 109 106 103 99 95 93 91 89 88 87
198 196 214 223 221 223 228 197 188 184 186 197 186 171 162 76 135 142 150 156 150 148 145 141 142 142 141 140 138 137 136 134 131 128 126 123 120 116 113 110 107 105 101 98 96 94 92 89 87
209 206 210 221 226 222 226 221 191 191 182 185 195 190 172 107 122 140 152 155 151 149 145 143 142 141 138 138 136 135 136 136 134 131 128 125 121 118 116 112 109 107 104 101 98 96 94 91 88
193 212 219 222 221 219 221 217 209 209 193 186 192 194 163 130 143 148 153 155 152 148 146 144 141 139 137 135 134 132 131 134 136 133 130 127 123 121 118 114 111 109 106 103 100 97 95 92 89
207 209 225 227 223 220 216 206 213 209 202 195 190 187 156 152 147 150 152 152 150 148 147 147 147 143 137 134 133 132 131 129 129 129 128 127 125 122 120 116 113 111 107 104 102 99 96 93 89
224 218 225 226 224 222 209 203 223 216 211 185 191 198 177 163 150 149 149 150 150 151 150 150 149 149 146 140 133 131 130 128 126 124 122 121 123 123 121 118 114 112 109 106 103 100 97 93 89
214 220 223 219 221 222 204 206 206 218 189 183 199 219 138 148 151 151 151 153 155 155 156 153 151 151 148 144 137 133 127 126 125 122 121 126 127 126 122 113 113 112 109 107 104 101 99 98 95
205 222 225 222 225 220 205 212 195 192 195 196 190 150 141 153 161 163 164 165 164 163 161 155 152 152 147 143 144 142 137 137 136 135 134 128 125 120 118 110 107 108 108 108 104 106 107 104 99
209 226 227 229 231 221 207 211 201 205 209 210 199 170 158 165 172 174 174 173 169 164 160 158 154 155 147 144 144 143 141 139 138 139 137 130 124 123 123 122 117 113 114 112 114 115 102 94 90
218 228 225 226 220 216 212 210 213 219 226 221 195 170 167 175 180 181 179 174 169 166 164 159 154 155 149 144 144 143 141 141 140 140 141 136 130 130 129 126 124 119 110 111 113 103 101 99 96
221 222 218 225 221 221 218 218 222 230 249 219 174 171 176 181 185 184 181 175 170 168 167 161 156 158 151 144 146 146 145 144 143 141 143 143 139 137 135 129 125 121 116 112 106 109 105 99 92
217 221 221 221 219 216 221 237 232 236 231 195 180 183 185 185 186 184 183 180 176 172 167 161 163 162 154 150 151 149 147 145 146 143 145 146 142 140 139 133 127 121 120 114 110 104 106 102 96
218 219 223 220 216 214 215 237 234 234 214 204 196 191 190 190 188 189 187 185 181 175 168 165 167 164 158 153 151 147 148 149 146 143 145 144 140 141 138 132 129 124 126 123 113 106 98 99 109
208 215 219 216 213 211 209 230 230 231 215 214 208 201 197 195 195 192 185 185 180 174 170 166 165 164 159 153 149 145 148 147 145 144 145 143 140 141 138 133 129 131 130 128 123 118 118 109 98
202 214 217 214 207 208 214 236 240 225 211 218 215 209 204 202 200 198 188 184 178 176 170 166 166 163 157 149 143 139 141 141 145 146 144 145 143 145 141 137 134 138 136 135 131 126 123 121 103
202 209 213 215 204 212 220 237 243 231 210 221 222 216 209 208 204 195 189 182 175 173 169 168 165 162 151 142 137 136 135 136 141 144 144 147 148 150 143 139 138 142 140 142 142 129 109 97 92
208 207 212 219 216 216 223 237 234 226 216 219 223 219 214 211 198 185 180 175 166 168 172 169 169 164 157 155 157 157 158 154 149 144 147 152 152 153 149 146 147 152 155 155 149 138 121 81 44
206 208 210 209 214 224 227 240 237 228 227 223 222 222 219 213 198 187 175 171 175 176 176 175 175 170 169 168 166 162 152 152 150 144 149 157 157 156 158 157 157 163 163 160 159 150 150 93 50
207 206 207 205 219 226 222 235 229 228 229 226 226 226 220 208 204 194 181 179 183 185 183 182 179 173 172 165 152 138 132 133 156 166 170 167 167 163 164 165 162 167 172 176 179 179 178 175 157
212 210 207 199 199 214 212 230 222 219 220 220 222 224 224 218 211 198 188 187 192 194 190 185 178 176 173 170 169 169 176 181 186 181 179 171 172 170 168 168 169 172 178 181 186 198 208 202 204
214 207 205 200 204 221 222 234 227 208 222 223 223 226 227 221 212 202 198 197 196 192 187 185 181 179 177 177 177 179 184 182 171 168 171 175 172 173 173 176 178 180 181 185 187 193 210 219 225
196 179 184 195 205 221 216 222 230 210 223 225 227 230 230 222 213 206 204 195 192 184 183 180 180 180 180 180 180 184 183 176 173 173 175 179 178 179 180 183 185 183 184 189 191 195 207 217 222
168 163 174 191 207 225 203 219 236 222 226 227 225 224 225 216 206 200 198 193 184 183 187 182 180 180 181 182 184 187 188 184 184 184 184 182 183 188 190 188 187 185 187 190 191 198 205 213 222
191 189 196 207 215 223 203 220 219 231 247 249 229 208 202 193 194 197 191 190 191 194 191 188 189 186 185 186 185 184 183 187 191 192 188 186 189 189 188 188 187 189 186 187 189 197 203 209 221
188 195 235 247 231 219 208 218 236 263 290 330 155 156 227 253 274 255 214 197 199 199 197 195 192 189 187 189 182 180 181 186 189 189 188 184 183 179 182 181 183 186 185 186 188 196 198 201 215
217 178 180 188 201 220 216 221 218 200 242 250 208 236 274 283 292 291 253 227 211 202 195 190 192 191 189 185 184 183 186 187 188 185 181 180 178 175 175 178 181 182 181 184 186 191 197 206 214
183 180 206 201 254 241 222 217 188 213 231 239 250 282 288 293 286 279 264 232 222 187 171 172 171 166 174 180 179 178 178 177 180 182 181 176 176 176 178 179 180 182 182 180 186 194 196 210 224
226 212 204 209 222 247 244 229 73 31 341 306 305 323 326 329 317 319 347 150 132 128 165 170 170 167 173 164 165 166 164 166 173 176 174 172 174 175 178 180 183 185 187 187 191 196 204 213 224
Height
1516 1518 1520 1523 1522 1516 1508 1505 1506 1508 1509 1511 1512 1512 1510 1510 1512 1516 1516 1516 1519 1522 1525 1528 1530 1533 1535 1537 1538 1540 1541 1542 1543 1544 1545 1545 1546 1546 1547 1547 1547 1548 1548 1548 1547 1547 1547 1547 1546
1516 1518 1521 1521 1515 1510 1505 1503 1506 1506 1508 1511 1512 1512 1511 1512 1514 1514 1514 1516 1519 1522 1525 1528 1530 1533 1535 1537 1539 1541 1542 1543 1544 1545 1546 1547 1547 1548 1548 1549 1549 1549 1549 1549 1549 1549 1548 1548 1548
1515 1517 1520 1516 1509 1502 1499 1501 1504 1507 1510 1511 1511 1512 1512 1513 1513 1513 1514 1516 1520 1523 1525 1528 1531 1533 1536 1538 1540 1541 1543 1544 1545 1546 1547 1548 1548 1549 1549 1550 1550 1550 1550 1550 1550 1550 1549 1549 1549
1516 1518 1518 1512 1504 1500 1498 1501 1505 1507 1509 1510 1510 1511 1512 1513 1513 1513 1514 1517 1520 1523 1526 1528 1531 1534 1536 1538 1540 1542 1544 1545 1546 1547 1548 1549 1550 1550 1550 1551 1551 1551 1551 1551 1551 1551 1551 1550 1550
1514 1515 1511 1506 1500 1499 1502 1504 1506 1505 1506 1508 1510 1509 1511 1512 1512 1512 1514 1517 1521 1524 1526 1529 1531 1534 1537 1539 1541 1543 1544 1546 1547 1548 1549 1550 1550 1551 1551 1552 1552 1552 1552 1552 1552 1552 1552 1551 1551
1513 1510 1505 1500 1497 1498 1502 1505 1506 1505 1506 1508 1509 1509 1510 1511 1511 1513 1515 1518 1521 1524 1526 1529 1532 1534 1537 1539 1541 1543 1545 1546 1548 1549 1550 1551 1551 1552 1552 1552 1553 1553 1553 1553 1553 1553 1553 1552 1552
1509 1506 1499 1495 1495 1497 1500 1504 1504 1503 1505 1507 1508 1508 1509 1510 1511 1513 1516 1519 1522 1524 1527 1529 1532 1535 1537 1539 1541 1543 1545 1547 1548 1549 1550 1551 1552 1553 1553 1553 1553 1554 1554 1554 1554 1554 1553 1553 1552
1506 1504 1498 1495 1494 1495 1499 1502 1503 1503 1504 1506 1508 1507 1508 1509 1510 1513 1516 1519 1522 1524 1527 1529 1532 1534 1537 1539 1541 1543 1545 1547 1548 1550 1551 1552 1553 1553 1554 1554 1554 1554 1555 1555 1555 1554 1554 1554 1553
1505 1503 1493 1492 1493 1494 1498 1501 1502 1503 1504 1505 1506 1507 1507 1508 1510 1513 1515 1518 1521 1524 1526 1529 1531 1534 1536 1539 1541 1543 1545 1547 1549 1550 1551 1552 1553 1554 1554 1554 1555 1555 1555 1555 1555 1555 1555 1554 1554
1501 1495 1489 1491 1493 1495 1498 1499 1501 1501 1502 1503 1504 1505 1506 1507 1509 1511 1513 1516 1519 1522 1525 1528 1530 1533 1535 1538 1540 1543 1545 1547 1548 1550 1551 1552 1553 1554 1554 1555 1555 1555 1556 1556 1555 1555 1555 1555 1554
1497 1492 1491 1494 1495 1497 1497 1498 1499 1499 1499 1500 1501 1503 1504 1506 1509 1511 1513 1515 1518 1521 1524 1527 1529 1532 1534 1537 1539 1542 1544 1546 1548 1549 1551 1552 1553 1554 1554 1555 1555 1555 1556 1556 1556 1556 1555 1555 1554
1494 1492 1493 1494 1496 1497 1497 1497 1498 1498 1498 1499 1500 1501 1503 1505 1507 1509 1512 1515 1517 1520 1522 1525 1528 1531 1533 1536 1539 1541 1543 1545 1547 1548 1550 1551 1552 1553 1554 1554 1555 1555 1555 1555 1556 1555 1555 1555 1554
1492 1491 1493 1495 1496 1496 1496 1497 1496 1497 1498 1498 1499 1500 1502 1504 1506 1509 1512 1514 1516 1519 1521 1524 1527 1529 1532 1535 1538 1540 1542 1544 1546 1548 1549 1551 1552 1553 1553 1554 1554 1555 1555 1555 1555 1555 1555 1554 1554
1490 1491 1492 1493 1494 1494 1495 1495 1496 1495 1497 1497 1498 1499 1501 1503 1505 1507 1510 1512 1514 1517 1520 1523 1525 1528 1531 1534 1537 1539 1542 1544 1545 1547 1548 1550 1551 1552 1553 1553 1554 1554 1554 1555 1555 1554 1554 1554 1553
1491 1491 1490 1491 1492 1493 1494 1493 1492 1494 1495 1496 1497 1499 1500 1502 1503 1505 1507 1510 1513 1516 1518 1521 1524 1526 1529 1532 1536 1538 1541 1543 1544 1546 1548 1549 1550 1552 1552 1553 1553 1553 1554 1554 1554 1553 1553 1553 1553
1488 1488 1487 1487 1489 1491 1494 1487 1489 1492 1494 1495 1496 1498 1499 1500 1502 1504 1506 1508 1511 1514 1517 1520 1523 1525 1528 1531 1534 1536 1539 1541 1543 1545 1547 1548 1549 1551 1552 1552 1553 1553 1553 1553 1553 1553 1552 1552 1552
1484 1484 1483 1484 1486 1488 1489 1485 1488 1491 1492 1493 1494 1496 1497 1498 1500 1501 1504 1506 1509 1512 1515 1518 1521 1524 1527 1529 1532 1535 1538 1540 1542 1544 1545 1547 1548 1549 1550 1551 1551 1552 1552 1552 1552 1552 1551 1551 1550
1480 1480 1481 1482 1484 1487 1486 1485 1488 1489 1490 1491 1492 1493 1495 1496 1498 1499 1502 1504 1507 1510 1513 1516 1519 1522 1525 1528 1530 1533 1536 1538 1540 1542 1544 1546 1547 1548 1549 1550 1550 1551 1551 1551 1551 1551 1550 1550 1549
1479 1479 1480 1481 1485 1486 1484 1484 1486 1488 1489 1490 1490 1491 1493 1494 1496 1498 1500 1502 1504 1507 1510 1513 1516 1519 1522 1525 1528 1531 1533 1536 1539 1541 1542 1544 1545 1546 1547 1548 1549 1549 1549 1550 1550 1549 1549 1548 1547
1479 1479 1480 1483 1486 1486 1484 1484 1485 1486 1488 1488 1489 1490 1491 1492 1494 1495 1497 1499 1502 1505 1508 1511 1513 1516 1520 1523 1526 1529 1532 1534 1537 1539 1540 1542 1543 1544 1546 1547 1547 1548 1548 1548 1548 1548 1547 1546 1546
1479 1479 1480 1483 1486 1485 1485 1483 1483 1484 1486 1488 1488 1489 1490 1491 1492 1493 1494 1496 1499 1502 1505 1508 1511 1514 1517 1521 1524 1527 1530 1532 1535 1536 1538 1540 1541 1542 1543 1545 1545 1546 1546 1546 1546 1546 1545 1545 1544
1479 1480 1481 1483 1485 1484 1484 1480 1476 1479 1482 1484 1486 1487 1488 1490 1491 1491 1492 1494 1496 1500 1503 1506 1509 1512 1515 1518 1522 1524 1526 1529 1531 1534 1536 1538 1539 1540 1541 1542 1543 1543 1544 1544 1544 1544 1544 1543 1543
1480 1482 1483 1483 1483 1486 1485 1483 1472 1476 1478 1479 1482 1484 1486 1487 1488 1490 1491 1493 1495 1498 1500 1503 1506 1509 1512 1516 1519 1522 1525 1527 1529 1531 1533 1535 1536 1538 1539 1540 1540 1541 1541 1542 1542 1542 1542 1541 1541
1482 1482 1483 1484 1484 1487 1482 1481 1471 1473 1475 1476 1480 1482 1484 1485 1487 1488 1490 1492 1494 1495 1498 1501 1503 1506 1510 1513 1516 1518 1521 1524 1526 1528 1530 1532 1533 1534 1536 1537 1538 1538 1539 1539 1539 1539 1539 1539 1538
1481 1482 1482 1483 1483 1478 1477 1479 1473 1472 1475 1476 1479 1480 1482 1483 1485 1486 1488 1489 1490 1493 1495 1498 1500 1503 1506 1509 1512 1515 1518 1521 1523 1525 1527 1528 1530 1531 1532 1534 1535 1535 1536 1537 1537 1537 1536 1536 1536
1482 1482 1480 1479 1475 1473 1478 1474 1471 1475 1477 1478 1479 1480 1481 1482 1483 1484 1485 1487 1489 1491 1493 1495 1497 1500 1502 1506 1509 1512 1514 1517 1519 1521 1523 1525 1527 1528 1529 1531 1532 1532 1533 1533 1533 1534 1533 1533 1533
1484 1483 1484 1483 1479 1479 1474 1472 1474 1475 1476 1477 1478 1479 1479 1480 1480 1482 1483 1485 1487 1488 1490 1492 1494 1497 1499 1502 1505 1508 1510 1513 1516 1518 1520 1522 1523 1525 1526 1527 1528 1529 1530 1530 1530 1530 1530 1530 1529
1487 1486 1486 1484 1480 1471 1468 1467 1467 1473 1474 1475 1477 1477 1478 1479 1479 1479 1480 1482 1484 1486 1488 1490 1492 1494 1497 1499 1502 1504 1507 1509 1512 1514 1516 1518 1520 1521 1523 1524 1525 1526 1526 1527 1527 1527 1527 1527 1526
1488 1489 1486 1483 1481 1472 1466 1468 1472 1473 1475 1475 1477 1478 1478 1478 1478 1478 1479 1481 1482 1484 1485 1488 1490 1491 1493 1496 1498 1501 1503 1506 1508 1510 1513 1515 1516 1518 1519 1520 1521 1522 1523 1523 1524 1524 1524 1523 1523
1488 1487 1486 1483 1484 1479 1469 1473 1477 1478 1478 1477 1477 1478 1477 1477 1477 1477 1478 1480 1481 1482 1483 1485 1486 1488 1491 1493 1495 1497 1499 1502 1504 1507 1509 1511 1513 1515 1516 1517 1518 1518 1519 1520 1520 1520 1520 1520 1519